COSMOS 2251 DEB

Satellite information

Favourite Embed

Satellite Type and Status

DEBRISIN ORBIT

Key statistics

Satellite COSMOS 2251 DEB at a glance.

Uptime

11868

Days in orbit

Revolutions

≈ 13.5

Per day

Orbit

LEO

Low Earth Orbit

Inclination

73.9

Latest

Satellite identification and parameters

Extended collection of information and parameters for COSMOS 2251 DEB.

Object identification

Identified? True

Debris? True

Object name: COSMOS 2251 DEB

International designator: 1993-036ZZ

Object number (NORAD): 34755

Object ID (CCSDS): 34755

Country: COMMONWEALTH OF INDEPENDENT STATES (CIS)

Current information (Y/N): Y

RCS size: SMALL

Orbital parameters

Period: 106.623 minutes

Inclination: 73.9258 deg

SMA: 7448.356 km

Apoapsis: 1374.344 km

Periapsis: 766.097 km

RAAN: 291.8222 deg

Eccentricy: 0.04083101

Argument of periapsis: 311.8419 deg

Mean anomaly: 242.47 deg

Mean motion: 13.50554631 rev/day

Mean motion (dot): 0.00002517 rev/day2

B* drag term: 0.0023536952 1/REarth

Two-line elements (TLE)

Creation date: Dec. 11, 2025, 7:14 p.m.

Reference frame: TEME

Reference center: EARTH

Epoch: Dec. 11, 2025, 2:55 p.m. UTC

TLE line 0: 0 COSMOS 2251 DEB

TLE line 1: 1 34755U 93036ZZ 25345.62156437 .00002517 00000-0 23537-2 0 9995

TLE line 2: 2 34755 73.9258 291.8222 0408310 311.8419 242.4700 13.50554631825084

Live tracking on map

Real-time ground track for satellite COSMOS 2251 DEB.

In-orbit conjunctions

A list of the most updated potential collisions computed for object COSMOS 2251 DEB.

Target Orbit TCA Probability of collision Miss distance Type
DELTA 1 DEB SSO 2025-02-22 05:53:37 0.0001038742 404.0 (m) DEBRIS
NOAA 16 DEB SSO 2024-11-15 05:55:08 0.0001379163 366.0 (m) DEBRIS

Associated space launch

Military communications satellite. Destroyed in a collision with Iridium 33.

COSMOS 2251 DEB was lifted into orbit during the mission ‘Kosmos-3M | Strela-2M 51’, on board a Kosmos-3M space rocket.

The launch took place on June 16, 1993, 4:17 a.m. from 132/1 (132L).

For more information about the launch, click the button.

Launch to space Kosmos-3M | Strela-2M 51
Kosmos-3M | Strela-2M 51

Agency: N/A

Status: Launch Successful

Launch date: June 16, 1993, 4:17 a.m. UTC

Rocket: Kosmos-3M

Launch pad: 132/1 (132L)

Location: Plesetsk Cosmodrome, Russian Federation

...

Latest news about this satellite

There are no fresh news available about this satellite. Check back as we update our databases every day.


Newsletter sign-up

Weekly statistics, charts and insights to help you stay on top of the space industry.